| time (UTC) | temp F | wind direction | speed MPH | gust MPH | rain 1hr in | rain 24hr in | rain mn in | humidity % | barometer mb |
| 20260506211309 | 71 | 55 | 4.0 | 5.0 | 0.00 | 0.00 | 0.00 | 55 | 1019.2 |
| 20260506210808 | 71 | 43 | 5.0 | 8.0 | 0.00 | 0.00 | 0.00 | 54 | 1019.2 |
| 20260506210307 | 71 | 283 | 3.0 | 5.0 | 0.00 | 0.00 | 0.00 | 56 | 1019.3 |
| 20260506205808 | 71 | 2 | 3.0 | 4.0 | 0.00 | 0.00 | 0.00 | 56 | 1019.3 |
| 20260506205308 | 71 | 16 | 5.0 | 7.0 | 0.00 | 0.00 | 0.00 | 55 | 1019.3 |
| 20260506204808 | 70 | 12 | 4.0 | 5.0 | 0.00 | 0.00 | 0.00 | 55 | 1019.4 |
| 20260506204308 | 69 | 46 | 1.0 | 4.0 | 0.00 | 0.00 | 0.00 | 57 | 1019.5 |
| 20260506203808 | 70 | 315 | 4.0 | 7.0 | 0.00 | 0.00 | 0.00 | 57 | 1019.5 |
| 20260506203308 | 69 | 296 | 1.0 | 2.0 | 0.00 | 0.00 | 0.00 | 57 | 1019.6 |
| 20260506202807 | 69 | 312 | 3.0 | 5.0 | 0.00 | 0.00 | 0.00 | 58 | 1019.6 |
| 20260506202308 | 69 | 331 | 3.0 | 6.0 | 0.00 | 0.00 | 0.00 | 58 | 1019.7 |
| 20260506201808 | 68 | 31 | 2.0 | 6.0 | 0.00 | 0.00 | 0.00 | 58 | 1019.8 |
| 20260506201307 | 68 | 354 | 5.0 | 6.0 | 0.00 | 0.00 | 0.00 | 58 | 1019.8 |
| 20260506200807 | 68 | 336 | 3.0 | 6.0 | 0.00 | 0.00 | 0.00 | 60 | 1019.8 |
| 20260506200307 | 68 | 282 | 5.0 | 7.0 | 0.00 | 0.00 | 0.00 | 59 | 1019.9 |
| 20260506195807 | 68 | 283 | 3.0 | 6.0 | 0.00 | 0.00 | 0.00 | 59 | 1019.9 |
| 20260506195307 | 68 | 275 | 2.0 | 3.0 | 0.00 | 0.00 | 0.00 | 61 | 1019.9 |
| 20260506194807 | 68 | 345 | 3.0 | 6.0 | 0.00 | 0.00 | 0.00 | 60 | 1019.9 |
| 20260506194308 | 68 | 292 | 3.0 | 4.0 | 0.00 | 0.00 | 0.00 | 60 | 1020.0 |
| 20260506193807 | 68 | 26 | 2.0 | 4.0 | 0.00 | 0.00 | 0.00 | 61 | 1020.1 |
| 20260506193308 | 68 | 313 | 4.0 | 6.0 | 0.00 | 0.00 | 0.00 | 60 | 1020.1 |
| 20260506192808 | 67 | 91 | 1.0 | 2.0 | 0.00 | 0.00 | 0.00 | 62 | 1020.1 |
| 20260506192307 | 67 | 7 | 5.0 | 8.0 | 0.00 | 0.00 | 0.00 | 62 | 1020.1 |
| 20260506191809 | 67 | 353 | 2.0 | 4.0 | 0.00 | 0.00 | 0.00 | 62 | 1020.2 |
| 20260506191308 | 67 | 339 | 2.0 | 4.0 | 0.00 | 0.00 | 0.00 | 62 | 1020.2 |
| 20260506190811 | 66 | 61 | 3.0 | 8.0 | 0.00 | 0.00 | 0.00 | 64 | 1020.2 |
| 20260506190310 | 66 | 288 | 4.0 | 5.0 | 0.00 | 0.00 | 0.00 | 64 | 1020.3 |
| 20260506185808 | 65 | 73 | 5.0 | 7.0 | 0.00 | 0.00 | 0.00 | 65 | 1020.3 |
| 20260506185307 | 66 | 19 | 4.0 | 6.0 | 0.00 | 0.00 | 0.00 | 65 | 1020.3 |
| 20260506184808 | 66 | 34 | 1.0 | 3.0 | 0.00 | 0.00 | 0.00 | 65 | 1020.3 |
| 20260506184311 | 66 | 358 | 2.0 | 3.0 | 0.00 | 0.00 | 0.00 | 64 | 1020.4 |
| 20260506183810 | 65 | 148 | 2.0 | 4.0 | 0.00 | 0.00 | 0.00 | 65 | 1020.4 |
| 20260506183308 | 65 | 290 | 4.0 | 6.0 | 0.00 | 0.00 | 0.00 | 66 | 1020.5 |
| 20260506182808 | 65 | 189 | 1.0 | 2.0 | 0.00 | 0.00 | 0.00 | 64 | 1020.5 |
| 20260506182310 | 65 | 293 | 3.0 | 6.0 | 0.00 | 0.00 | 0.00 | 64 | 1020.6 |
| 20260506181807 | 64 | 91 | 1.0 | 2.0 | 0.00 | 0.00 | 0.00 | 67 | 1020.6 |
| 20260506181307 | 64 | 37 | 3.0 | 5.0 | 0.00 | 0.00 | 0.00 | 68 | 1020.6 |
| 20260506180808 | 64 | 69 | 3.0 | 5.0 | 0.00 | 0.00 | 0.00 | 68 | 1020.5 |
| 20260506180309 | 63 | 7 | 2.0 | 5.0 | 0.00 | 0.00 | 0.00 | 69 | 1020.6 |
| 20260506175807 | 63 | 51 | 4.0 | 6.0 | 0.00 | 0.00 | 0.00 | 68 | 1020.6 |
| 20260506175308 | 63 | 206 | 4.0 | 5.0 | 0.00 | 0.00 | 0.00 | 69 | 1020.6 |
| 20260506174808 | 63 | 291 | 2.0 | 3.0 | 0.00 | 0.00 | 0.00 | 69 | 1020.7 |
| 20260506174308 | 63 | 330 | 1.0 | 3.0 | 0.00 | 0.00 | 0.00 | 69 | 1020.6 |
| 20260506173808 | 63 | 183 | 1.0 | 2.0 | 0.00 | 0.00 | 0.00 | 69 | 1020.7 |
| 20260506173308 | 63 | 222 | 1.0 | 2.0 | 0.00 | 0.00 | 0.00 | 69 | 1020.7 |
| 20260506172807 | 62 | 269 | 2.0 | 3.0 | 0.00 | 0.00 | 0.00 | 71 | 1020.7 |
| 20260506172308 | 61 | 54 | 0.0 | 2.0 | 0.00 | 0.00 | 0.00 | 73 | 1020.7 |
| 20260506171808 | 61 | 233 | 2.0 | 3.0 | 0.00 | 0.00 | 0.00 | 74 | 1020.7 |
| 20260506171308 | 61 | 335 | 2.0 | 4.0 | 0.00 | 0.00 | 0.00 | 74 | 1020.8 |
| 20260506170808 | 60 | 258 | 2.0 | 3.0 | 0.00 | 0.00 | 0.00 | 74 | 1020.8 |
| 20260506170307 | 60 | 258 | 2.0 | 3.0 | 0.00 | 0.00 | 0.00 | 74 | 1020.8 |
| 20260506165807 | 60 | 255 | 2.0 | 4.0 | 0.00 | 0.00 | 0.00 | 75 | 1020.8 |
| 20260506165308 | 61 | 323 | 0.0 | 2.0 | 0.00 | 0.00 | 0.00 | 74 | 1020.8 |
| 20260506164807 | 60 | 238 | 0.0 | 1.0 | 0.00 | 0.00 | 0.00 | 75 | 1020.8 |
| 20260506164309 | 60 | 169 | 1.0 | 2.0 | 0.00 | 0.00 | 0.00 | 76 | 1020.8 |
| 20260506163807 | 60 | 326 | 1.0 | 3.0 | 0.00 | 0.00 | 0.00 | 77 | 1020.8 |
| 20260506163307 | 60 | 264 | 1.0 | 3.0 | 0.00 | 0.00 | 0.00 | 77 | 1020.8 |
| 20260506162808 | 60 | 354 | 1.0 | 3.0 | 0.00 | 0.00 | 0.00 | 77 | 1020.8 |
| 20260506162308 | 60 | 305 | 2.0 | 4.0 | 0.00 | 0.00 | 0.00 | 76 | 1020.7 |
| 20260506161808 | 59 | 316 | 1.0 | 3.0 | 0.00 | 0.00 | 0.00 | 79 | 1020.8 |
| 20260506161308 | 59 | 268 | 2.0 | 3.0 | 0.00 | 0.00 | 0.00 | 79 | 1020.8 |
| 20260506160809 | 59 | 346 | 2.0 | 3.0 | 0.00 | 0.00 | 0.00 | 80 | 1020.8 |
| 20260506160310 | 59 | 281 | 3.0 | 6.0 | 0.00 | 0.00 | 0.00 | 79 | 1020.8 |
| 20260506155812 | 59 | 339 | 2.0 | 3.0 | 0.00 | 0.00 | 0.00 | 79 | 1020.8 |
| 20260506155308 | 58 | 303 | 1.0 | 2.0 | 0.00 | 0.00 | 0.00 | 80 | 1020.8 |
| 20260506154807 | 58 | 335 | 2.0 | 3.0 | 0.00 | 0.00 | 0.00 | 81 | 1020.8 |
| 20260506154308 | 58 | 251 | 0.0 | 0.0 | 0.00 | 0.00 | 0.00 | 81 | 1020.7 |
| 20260506153811 | 58 | 341 | 1.0 | 3.0 | 0.00 | 0.00 | 0.00 | 82 | 1020.7 |
| 20260506153312 | 58 | 254 | 1.0 | 2.0 | 0.00 | 0.00 | 0.00 | 82 | 1020.8 |
| 20260506152808 | 57 | 320 | 0.0 | 1.0 | 0.00 | 0.00 | 0.00 | 82 | 1020.8 |
| 20260506152307 | 57 | 264 | 2.0 | 3.0 | 0.00 | 0.00 | 0.00 | 82 | 1020.7 |
| 20260506151808 | 57 | 280 | 2.0 | 4.0 | 0.00 | 0.00 | 0.00 | 82 | 1020.7 |
| 20260506151308 | 57 | 22 | 0.0 | 1.0 | 0.00 | 0.00 | 0.00 | 83 | 1020.7 |
| 20260506150808 | 57 | 288 | 1.0 | 2.0 | 0.00 | 0.00 | 0.00 | 83 | 1020.7 |
| 20260506150312 | 57 | 286 | 1.0 | 2.0 | 0.00 | 0.00 | 0.00 | 83 | 1020.8 |
| 20260506145809 | 57 | 296 | 1.0 | 2.0 | 0.00 | 0.00 | 0.00 | 84 | 1020.8 |
| 20260506145308 | 57 | 307 | 0.0 | 1.0 | 0.00 | 0.00 | 0.00 | 84 | 1020.7 |
| 20260506144807 | 56 | 285 | 1.0 | 2.0 | 0.00 | 0.00 | 0.00 | 84 | 1020.8 |
| 20260506144308 | 56 | 242 | 1.0 | 2.0 | 0.00 | 0.00 | 0.00 | 84 | 1020.7 |
| 20260506143807 | 56 | 246 | 1.0 | 2.0 | 0.00 | 0.00 | 0.00 | 84 | 1020.7 |
| 20260506143312 | 56 | 281 | 2.0 | 3.0 | 0.00 | 0.00 | 0.00 | 84 | 1020.6 |
| 20260506142808 | 56 | 270 | 1.0 | 2.0 | 0.00 | 0.00 | 0.00 | 85 | 1020.6 |
| 20260506142308 | 56 | 289 | 1.0 | 3.0 | 0.00 | 0.00 | 0.00 | 85 | 1020.7 |
| 20260506141808 | 56 | 283 | 2.0 | 4.0 | 0.00 | 0.00 | 0.00 | 85 | 1020.6 |
| 20260506141307 | 56 | 280 | 1.0 | 2.0 | 0.00 | 0.00 | 0.00 | 85 | 1020.5 |
| 20260506140808 | 56 | 279 | 2.0 | 2.0 | 0.00 | 0.00 | 0.00 | 85 | 1020.5 |
| 20260506140311 | 56 | 270 | 0.0 | 1.0 | 0.00 | 0.00 | 0.00 | 85 | 1020.5 |
| 20260506135807 | 56 | 274 | 2.0 | 4.0 | 0.00 | 0.00 | 0.00 | 85 | 1020.4 |
| 20260506135308 | 56 | 273 | 1.0 | 2.0 | 0.00 | 0.00 | 0.00 | 85 | 1020.3 |
| 20260506134808 | 56 | 271 | 0.0 | 2.0 | 0.00 | 0.00 | 0.00 | 85 | 1020.2 |
| 20260506134309 | 56 | 278 | 2.0 | 3.0 | 0.00 | 0.00 | 0.00 | 85 | 1020.2 |
| 20260506133808 | 56 | 288 | 1.0 | 2.0 | 0.00 | 0.00 | 0.00 | 85 | 1020.1 |
| 20260506133313 | 56 | 253 | 1.0 | 2.0 | 0.00 | 0.00 | 0.00 | 86 | 1020.0 |
| 20260506132809 | 56 | 288 | 2.0 | 2.0 | 0.00 | 0.00 | 0.00 | 86 | 1020.0 |
| 20260506132308 | 56 | 266 | 1.0 | 2.0 | 0.00 | 0.00 | 0.00 | 86 | 1019.9 |
| 20260506131808 | 56 | 282 | 1.0 | 2.0 | 0.00 | 0.00 | 0.00 | 86 | 1019.9 |
| 20260506131308 | 56 | 274 | 2.0 | 3.0 | 0.00 | 0.00 | 0.00 | 86 | 1019.9 |
| 20260506130808 | 56 | 277 | 2.0 | 2.0 | 0.00 | 0.00 | 0.00 | 86 | 1019.9 |
| 20260506130311 | 56 | 250 | 1.0 | 2.0 | 0.00 | 0.00 | 0.00 | 85 | 1019.8 |
| 20260506125807 | 56 | 287 | 1.0 | 2.0 | 0.00 | 0.00 | 0.00 | 85 | 1019.8 |
| 20260506125308 | 56 | 292 | 1.0 | 3.0 | 0.00 | 0.00 | 0.00 | 85 | 1019.7 |
| 20260506124346 | 56 | 286 | 2.0 | 4.0 | 0.00 | 0.00 | 0.00 | 85 | 1019.7 |
| 20260506123808 | 56 | 69 | 0.0 | 0.0 | 0.00 | 0.00 | 0.00 | 85 | 1019.6 |
| 20260506123307 | 56 | 304 | 1.0 | 2.0 | 0.00 | 0.00 | 0.00 | 86 | 1019.6 |
| 20260506122808 | 56 | 196 | 0.0 | 0.0 | 0.00 | 0.00 | 0.00 | 85 | 1019.7 |
| 20260506122307 | 56 | 256 | 1.0 | 2.0 | 0.00 | 0.00 | 0.00 | 85 | 1019.7 |
| 20260506121807 | 56 | 303 | 0.0 | 2.0 | 0.00 | 0.00 | 0.00 | 85 | 1019.7 |
| 20260506121308 | 56 | 284 | 1.0 | 2.0 | 0.00 | 0.00 | 0.00 | 85 | 1019.6 |
| 20260506120807 | 56 | 327 | 0.0 | 1.0 | 0.00 | 0.00 | 0.00 | 85 | 1019.6 |
| 20260506120308 | 56 | 245 | 0.0 | 1.0 | 0.00 | 0.00 | 0.00 | 85 | 1019.5 |
| 20260506115807 | 56 | 277 | 2.0 | 3.0 | 0.00 | 0.00 | 0.00 | 85 | 1019.5 |
| 20260506115307 | 56 | 274 | 1.0 | 2.0 | 0.00 | 0.00 | 0.00 | 85 | 1019.5 |
| 20260506114809 | 56 | 270 | 2.0 | 3.0 | 0.00 | 0.00 | 0.00 | 85 | 1019.5 |
| 20260506114308 | 56 | 279 | 1.0 | 1.0 | 0.00 | 0.00 | 0.00 | 85 | 1019.4 |
| 20260506113808 | 56 | 289 | 1.0 | 2.0 | 0.00 | 0.00 | 0.00 | 85 | 1019.4 |
| 20260506113307 | 56 | 271 | 1.0 | 2.0 | 0.00 | 0.00 | 0.00 | 85 | 1019.4 |
| 20260506112808 | 56 | 238 | 1.0 | 2.0 | 0.00 | 0.00 | 0.00 | 85 | 1019.3 |
| 20260506112308 | 56 | 271 | 1.0 | 2.0 | 0.00 | 0.00 | 0.00 | 85 | 1019.3 |
| 20260506111809 | 56 | 269 | 1.0 | 2.0 | 0.00 | 0.00 | 0.00 | 85 | 1019.3 |
| 20260506111308 | 56 | 300 | 1.0 | 1.0 | 0.00 | 0.00 | 0.00 | 85 | 1019.3 |
| 20260506110807 | 56 | 308 | 0.0 | 1.0 | 0.00 | 0.00 | 0.00 | 85 | 1019.3 |
| 20260506110309 | 56 | 309 | 2.0 | 3.0 | 0.00 | 0.00 | 0.00 | 85 | 1019.2 |
| 20260506105807 | 56 | 332 | 1.0 | 2.0 | 0.00 | 0.00 | 0.00 | 86 | 1019.2 |
| 20260506105308 | 56 | 330 | 0.0 | 2.0 | 0.00 | 0.00 | 0.00 | 86 | 1019.2 |
| 20260506104807 | 56 | 250 | 0.0 | 1.0 | 0.00 | 0.00 | 0.00 | 85 | 1019.1 |
| 20260506104307 | 57 | 253 | 0.0 | 1.0 | 0.00 | 0.00 | 0.00 | 85 | 1019.1 |
| 20260506103808 | 57 | 322 | 1.0 | 1.0 | 0.00 | 0.00 | 0.00 | 85 | 1019.1 |
| 20260506103308 | 57 | 299 | 1.0 | 1.0 | 0.00 | 0.00 | 0.00 | 85 | 1019.1 |
| 20260506102342 | 57 | 302 | 0.0 | 1.0 | 0.00 | 0.00 | 0.00 | 84 | 1019.1 |
| 20260506101807 | 57 | 265 | 0.0 | 1.0 | 0.00 | 0.00 | 0.00 | 84 | 1019.1 |
| 20260506101307 | 57 | 310 | 0.0 | 2.0 | 0.00 | 0.00 | 0.00 | 84 | 1019.1 |
| 20260506100807 | 57 | 340 | 0.0 | 1.0 | 0.00 | 0.00 | 0.00 | 84 | 1019.2 |
| 20260506100308 | 57 | 304 | 0.0 | 2.0 | 0.00 | 0.00 | 0.00 | 84 | 1019.1 |
| 20260506095808 | 57 | 323 | 0.0 | 2.0 | 0.00 | 0.00 | 0.00 | 84 | 1019.1 |
| 20260506095309 | 57 | 259 | 2.0 | 2.0 | 0.00 | 0.00 | 0.00 | 84 | 1019.1 |
| 20260506094807 | 57 | 313 | 0.0 | 1.0 | 0.00 | 0.00 | 0.00 | 83 | 1019.1 |
| 20260506094307 | 57 | 288 | 1.0 | 2.0 | 0.00 | 0.00 | 0.00 | 83 | 1019.1 |
| 20260506093807 | 57 | 302 | 0.0 | 1.0 | 0.00 | 0.00 | 0.00 | 83 | 1019.1 |
| 20260506093308 | 57 | 0 | 0.0 | 0.0 | 0.00 | 0.00 | 0.00 | 83 | 1019.1 |
| 20260506092807 | 57 | 4 | 1.0 | 2.0 | 0.00 | 0.00 | 0.00 | 83 | 1019.2 |
| 20260506092308 | 57 | 2 | 0.0 | 0.0 | 0.00 | 0.00 | 0.00 | 83 | 1019.2 |
| 20260506091807 | 57 | 348 | 2.0 | 3.0 | 0.00 | 0.00 | 0.00 | 83 | 1019.2 |
| 20260506091307 | 57 | 354 | 1.0 | 2.0 | 0.00 | 0.00 | 0.00 | 83 | 1019.2 |
| 20260506090808 | 57 | 27 | 0.0 | 1.0 | 0.00 | 0.00 | 0.00 | 83 | 1019.1 |
| 20260506090310 | 57 | 324 | 0.0 | 1.0 | 0.00 | 0.00 | 0.00 | 83 | 1019.1 |
| 20260506085807 | 57 | 236 | 0.0 | 1.0 | 0.00 | 0.00 | 0.00 | 83 | 1019.0 |
| 20260506085308 | 57 | 0 | 0.0 | 0.0 | 0.00 | 0.00 | 0.00 | 82 | 1019.0 |
| 20260506084808 | 57 | 249 | 1.0 | 2.0 | 0.00 | 0.00 | 0.00 | 82 | 1019.1 |
| 20260506084307 | 57 | 315 | 0.0 | 1.0 | 0.00 | 0.00 | 0.00 | 82 | 1019.1 |
| 20260506083808 | 57 | 3 | 1.0 | 2.0 | 0.00 | 0.00 | 0.00 | 82 | 1019.1 |
| 20260506083307 | 57 | 286 | 1.0 | 3.0 | 0.00 | 0.00 | 0.00 | 82 | 1019.1 |
| 20260506082808 | 57 | 312 | 1.0 | 2.0 | 0.00 | 0.00 | 0.00 | 82 | 1019.1 |
| 20260506082308 | 57 | 315 | 0.0 | 1.0 | 0.00 | 0.00 | 0.00 | 82 | 1019.2 |
| 20260506081808 | 57 | 287 | 0.0 | 0.0 | 0.00 | 0.00 | 0.00 | 82 | 1019.2 |
| 20260506081308 | 57 | 331 | 0.0 | 1.0 | 0.00 | 0.00 | 0.00 | 82 | 1019.2 |
| 20260506080808 | 57 | 301 | 1.0 | 2.0 | 0.00 | 0.00 | 0.00 | 82 | 1019.2 |
| 20260506080311 | 57 | 322 | 0.0 | 2.0 | 0.00 | 0.00 | 0.00 | 82 | 1019.1 |
| 20260506073308 | 58 | 314 | 1.0 | 2.0 | 0.00 | 0.00 | 0.00 | 80 | 1018.9 |
| 20260506072807 | 58 | 339 | 1.0 | 3.0 | 0.00 | 0.00 | 0.00 | 80 | 1018.9 |
| 20260506072307 | 58 | 9 | 0.0 | 1.0 | 0.00 | 0.00 | 0.00 | 80 | 1018.8 |
| 20260506071807 | 58 | 310 | 0.0 | 1.0 | 0.00 | 0.00 | 0.00 | 80 | 1018.8 |
| 20260506071307 | 58 | 357 | 2.0 | 4.0 | 0.00 | 0.00 | 0.00 | 80 | 1018.8 |
| 20260506070807 | 58 | 9 | 0.0 | 1.0 | 0.00 | 0.00 | 0.00 | 80 | 1018.7 |
| 20260506070308 | 58 | 18 | 1.0 | 2.0 | 0.00 | 0.00 | 0.00 | 80 | 1018.7 |
| 20260506062308 | 58 | 350 | 2.0 | 4.0 | 0.00 | 0.00 | 0.01 | 78 | 1018.5 |
| 20260506061807 | 58 | 8 | 3.0 | 5.0 | 0.00 | 0.00 | 0.01 | 78 | 1018.5 |
| 20260506061308 | 58 | 357 | 1.0 | 4.0 | 0.00 | 0.00 | 0.01 | 78 | 1018.4 |
| 20260506060809 | 58 | 343 | 2.0 | 3.0 | 0.00 | 0.00 | 0.01 | 78 | 1018.3 |
| 20260506060307 | 58 | 6 | 4.0 | 6.0 | 0.00 | 0.00 | 0.01 | 77 | 1018.3 |
| 20260506051308 | 59 | 359 | 1.0 | 2.0 | 0.00 | 0.00 | 0.01 | 75 | 1018.1 |
| 20260506050808 | 59 | 326 | 1.0 | 2.0 | 0.00 | 0.00 | 0.01 | 76 | 1018.0 |
| 20260506050308 | 59 | 356 | 2.0 | 3.0 | 0.00 | 0.00 | 0.01 | 75 | 1017.9 |
| 20260506044808 | 59 | 329 | 2.0 | 4.0 | 0.00 | 0.00 | 0.01 | 75 | 1017.8 |
| 20260506044308 | 59 | 350 | 1.0 | 2.0 | 0.00 | 0.00 | 0.01 | 74 | 1017.7 |
| 20260506043808 | 59 | 346 | 2.0 | 4.0 | 0.00 | 0.00 | 0.01 | 74 | 1017.7 |
| 20260506043309 | 59 | 340 | 1.0 | 2.0 | 0.00 | 0.00 | 0.01 | 74 | 1017.7 |
| 20260506042807 | 59 | 352 | 1.0 | 3.0 | 0.00 | 0.00 | 0.01 | 74 | 1017.7 |
| 20260506042308 | 59 | 32 | 4.0 | 5.0 | 0.00 | 0.00 | 0.01 | 73 | 1017.6 |
| 20260506041808 | 59 | 355 | 1.0 | 2.0 | 0.00 | 0.00 | 0.01 | 73 | 1017.6 |
| 20260506041307 | 59 | 336 | 1.0 | 3.0 | 0.00 | 0.00 | 0.01 | 73 | 1017.5 |
| 20260506040807 | 59 | 288 | 1.0 | 2.0 | 0.00 | 0.00 | 0.01 | 73 | 1017.4 |
| 20260506040308 | 59 | 295 | 2.0 | 3.0 | 0.00 | 0.00 | 0.01 | 73 | 1017.3 |
| 20260506035807 | 59 | 242 | 1.0 | 3.0 | 0.00 | 0.00 | 0.01 | 72 | 1017.2 |
| 20260506035308 | 59 | 270 | 2.0 | 4.0 | 0.00 | 0.00 | 0.01 | 72 | 1017.2 |
| 20260506034808 | 59 | 272 | 2.0 | 2.0 | 0.00 | 0.00 | 0.01 | 72 | 1017.2 |
| 20260506034307 | 59 | 273 | 2.0 | 3.0 | 0.00 | 0.00 | 0.01 | 72 | 1017.1 |
| 20260506033808 | 59 | 264 | 1.0 | 2.0 | 0.00 | 0.00 | 0.01 | 72 | 1017.0 |
| 20260506033308 | 59 | 261 | 1.0 | 2.0 | 0.00 | 0.00 | 0.01 | 72 | 1017.0 |
| 20260506032807 | 59 | 317 | 1.0 | 2.0 | 0.00 | 0.00 | 0.01 | 71 | 1016.9 |
| 20260506032308 | 59 | 285 | 3.0 | 4.0 | 0.00 | 0.00 | 0.01 | 71 | 1016.8 |
| 20260506031807 | 60 | 295 | 2.0 | 3.0 | 0.00 | 0.00 | 0.01 | 72 | 1016.8 |
| 20260506031307 | 60 | 311 | 1.0 | 2.0 | 0.00 | 0.00 | 0.01 | 72 | 1016.8 |
| 20260506030808 | 60 | 269 | 1.0 | 2.0 | 0.00 | 0.00 | 0.01 | 72 | 1016.7 |
| 20260506030307 | 60 | 311 | 1.0 | 2.0 | 0.00 | 0.00 | 0.01 | 72 | 1016.7 |
| 20260506025808 | 60 | 337 | 2.0 | 4.0 | 0.00 | 0.00 | 0.01 | 73 | 1016.6 |
| 20260506025307 | 60 | 268 | 1.0 | 3.0 | 0.00 | 0.00 | 0.01 | 72 | 1016.6 |
| 20260506024807 | 60 | 308 | 1.0 | 2.0 | 0.00 | 0.00 | 0.01 | 73 | 1016.5 |
| 20260506024308 | 60 | 293 | 1.0 | 2.0 | 0.00 | 0.00 | 0.01 | 73 | 1016.4 |
| 20260506023807 | 60 | 307 | 1.0 | 2.0 | 0.00 | 0.00 | 0.01 | 72 | 1016.4 |
| 20260506023307 | 60 | 320 | 0.0 | 2.0 | 0.00 | 0.00 | 0.01 | 72 | 1016.3 |
| 20260506022809 | 60 | 274 | 2.0 | 3.0 | 0.00 | 0.00 | 0.01 | 72 | 1016.3 |
| 20260506022308 | 60 | 292 | 1.0 | 3.0 | 0.00 | 0.00 | 0.01 | 72 | 1016.3 |
| 20260506021807 | 60 | 284 | 2.0 | 4.0 | 0.00 | 0.00 | 0.01 | 71 | 1016.3 |
| 20260506021307 | 60 | 291 | 1.0 | 3.0 | 0.00 | 0.00 | 0.01 | 72 | 1016.2 |
| 20260506020810 | 60 | 289 | 2.0 | 4.0 | 0.00 | 0.00 | 0.01 | 72 | 1016.2 |
| 20260506020307 | 60 | 274 | 2.0 | 3.0 | 0.00 | 0.00 | 0.01 | 72 | 1016.3 |
| 20260506015807 | 60 | 275 | 0.0 | 2.0 | 0.00 | 0.00 | 0.01 | 72 | 1016.3 |
| 20260506015307 | 60 | 298 | 1.0 | 2.0 | 0.00 | 0.00 | 0.01 | 72 | 1016.3 |
| 20260506014807 | 60 | 288 | 2.0 | 3.0 | 0.00 | 0.00 | 0.01 | 72 | 1016.3 |
| 20260506014308 | 60 | 270 | 1.0 | 2.0 | 0.00 | 0.00 | 0.01 | 72 | 1016.4 |
| 20260506013807 | 60 | 261 | 1.0 | 2.0 | 0.00 | 0.00 | 0.01 | 72 | 1016.4 |
| 20260506013308 | 60 | 302 | 2.0 | 3.0 | 0.00 | 0.00 | 0.01 | 72 | 1016.4 |
| 20260506012807 | 60 | 310 | 2.0 | 4.0 | 0.00 | 0.00 | 0.01 | 72 | 1016.3 |
| 20260506012308 | 60 | 284 | 1.0 | 2.0 | 0.00 | 0.00 | 0.01 | 72 | 1016.3 |
| 20260506011808 | 60 | 279 | 2.0 | 3.0 | 0.00 | 0.00 | 0.01 | 72 | 1016.2 |
| 20260506011307 | 60 | 292 | 2.0 | 3.0 | 0.00 | 0.00 | 0.01 | 71 | 1016.3 |
| 20260506010808 | 60 | 274 | 2.0 | 5.0 | 0.00 | 0.00 | 0.01 | 71 | 1016.2 |
| 20260506010308 | 60 | 276 | 1.0 | 3.0 | 0.00 | 0.00 | 0.01 | 71 | 1016.2 |
| 20260506005808 | 60 | 292 | 2.0 | 4.0 | 0.00 | 0.00 | 0.01 | 71 | 1016.2 |
| 20260506005308 | 61 | 282 | 2.0 | 4.0 | 0.00 | 0.00 | 0.01 | 71 | 1016.2 |
| 20260506004807 | 61 | 220 | 0.0 | 2.0 | 0.00 | 0.00 | 0.01 | 72 | 1016.2 |
| 20260506004308 | 61 | 255 | 2.0 | 4.0 | 0.00 | 0.00 | 0.01 | 72 | 1016.2 |
| 20260506003808 | 61 | 291 | 3.0 | 7.0 | 0.00 | 0.00 | 0.01 | 72 | 1016.2 |
| 20260506003309 | 61 | 305 | 4.0 | 7.0 | 0.00 | 0.00 | 0.01 | 72 | 1016.2 |
| 20260506002808 | 61 | 279 | 3.0 | 6.0 | 0.00 | 0.00 | 0.01 | 71 | 1016.1 |
| 20260506002307 | 62 | 299 | 3.0 | 5.0 | 0.00 | 0.00 | 0.01 | 71 | 1016.0 |
| 20260506001807 | 62 | 310 | 2.0 | 4.0 | 0.00 | 0.00 | 0.01 | 69 | 1016.0 |
| 20260506001308 | 62 | 214 | 0.0 | 1.0 | 0.00 | 0.00 | 0.01 | 68 | 1015.9 |
| 20260506000807 | 62 | 247 | 1.0 | 3.0 | 0.00 | 0.00 | 0.01 | 68 | 1015.9 |
| 20260506000309 | 62 | 218 | 2.0 | 4.0 | 0.00 | 0.00 | 0.01 | 67 | 1015.8 |
| 20260505235808 | 62 | 89 | 0.0 | 2.0 | 0.00 | 0.00 | 0.01 | 66 | 1015.8 |
| 20260505235307 | 62 | 174 | 2.0 | 4.0 | 0.00 | 0.00 | 0.01 | 66 | 1015.8 |
| 20260505234807 | 62 | 146 | 1.0 | 2.0 | 0.00 | 0.00 | 0.01 | 67 | 1015.8 |
| 20260505234308 | 62 | 171 | 2.0 | 5.0 | 0.00 | 0.00 | 0.01 | 67 | 1015.9 |
| 20260505233808 | 62 | 123 | 0.0 | 1.0 | 0.00 | 0.00 | 0.01 | 67 | 1015.9 |
| 20260505233308 | 62 | 212 | 3.0 | 4.0 | 0.00 | 0.00 | 0.01 | 67 | 1015.9 |
| 20260505232808 | 62 | 185 | 1.0 | 2.0 | 0.00 | 0.00 | 0.01 | 66 | 1016.0 |
| 20260505232309 | 62 | 186 | 1.0 | 2.0 | 0.00 | 0.00 | 0.01 | 66 | 1016.0 |
| 20260505231807 | 62 | 186 | 1.0 | 3.0 | 0.00 | 0.00 | 0.01 | 67 | 1016.0 |
| 20260505231308 | 62 | 192 | 2.0 | 3.0 | 0.00 | 0.00 | 0.01 | 66 | 1016.0 |
| 20260505230322 | 62 | 172 | 1.0 | 2.0 | 0.00 | 0.00 | 0.01 | 67 | 1016.0 |
| 20260505225808 | 63 | 250 | 0.0 | 1.0 | 0.00 | 0.00 | 0.01 | 66 | 1016.0 |
| 20260505225308 | 63 | 146 | 1.0 | 4.0 | 0.00 | 0.00 | 0.01 | 66 | 1016.0 |
| 20260505224807 | 63 | 250 | 0.0 | 1.0 | 0.00 | 0.00 | 0.01 | 66 | 1016.0 |
| 20260505224308 | 62 | 286 | 0.0 | 2.0 | 0.00 | 0.00 | 0.01 | 66 | 1016.0 |
| 20260505223807 | 62 | 18 | 0.0 | 1.0 | 0.00 | 0.00 | 0.01 | 68 | 1016.1 |
| 20260505223308 | 62 | 48 | 2.0 | 4.0 | 0.00 | 0.00 | 0.01 | 67 | 1016.1 |
| 20260505222807 | 62 | 53 | 3.0 | 4.0 | 0.00 | 0.00 | 0.01 | 68 | 1016.2 |
| 20260505222307 | 61 | 1 | 0.0 | 1.0 | 0.00 | 0.00 | 0.01 | 68 | 1016.2 |
| 20260505221808 | 61 | 66 | 3.0 | 4.0 | 0.00 | 0.00 | 0.01 | 69 | 1016.2 |
| 20260505221307 | 61 | 350 | 3.0 | 5.0 | 0.00 | 0.00 | 0.01 | 69 | 1016.3 |
| 20260505220807 | 61 | 50 | 3.0 | 5.0 | 0.00 | 0.00 | 0.01 | 68 | 1016.3 |
| 20260505220308 | 61 | 44 | 4.0 | 6.0 | 0.00 | 0.00 | 0.01 | 69 | 1016.3 |
| 20260505215807 | 61 | 37 | 3.0 | 4.0 | 0.00 | 0.00 | 0.01 | 69 | 1016.3 |
| 20260505215307 | 61 | 45 | 2.0 | 4.0 | 0.00 | 0.00 | 0.01 | 70 | 1016.3 |
| 20260505214807 | 61 | 17 | 3.0 | 4.0 | 0.00 | 0.00 | 0.01 | 69 | 1016.3 |
| 20260505214307 | 61 | 33 | 3.0 | 6.0 | 0.00 | 0.00 | 0.01 | 69 | 1016.4 |
| 20260505213809 | 61 | 40 | 3.0 | 5.0 | 0.00 | 0.00 | 0.01 | 68 | 1016.5 |
| 20260505213308 | 61 | 52 | 2.0 | 4.0 | 0.00 | 0.00 | 0.01 | 69 | 1016.5 |
| 20260505212808 | 61 | 33 | 3.0 | 4.0 | 0.00 | 0.00 | 0.01 | 69 | 1016.6 |
| 20260505212308 | 61 | 44 | 2.0 | 3.0 | 0.00 | 0.00 | 0.01 | 69 | 1016.5 |
| 20260505211810 | 61 | 33 | 4.0 | 6.0 | 0.00 | 0.00 | 0.01 | 69 | 1016.5 |